STARLINK-32287, 60358

Orbit data source: Space-Track

STARLINK-32287, 60358 is a payload satellite owned by SpaceX/Seattle (US) in LEO that was launched on Sun, 04 Aug 2024 UTC via an FALCON 9 launch vehicle from the Air Force Western Test Range (AFWTR). Payload-class satellites include a variety of spacecraft equipped with specific instruments for various scientific and technological missions. These include communications satellites like Starlink; space stations such as the ISS; scientific satellites like the Hubble; Earth observation satellites from companies like Planet Labs, Umbra, and HawkEye 360; GPS; miniature CubeSats for education and research; and military/defense satellites.

Loading next visibility...
Identifier
60358, 2024-138D
Orbit
LEO
Last TLE update
11 hours ago
Origin
Manufacturer
SpaceX/Seattle
Mission
Operational Commercial Communications
Bus & Motor
STARLINK V2M, Unknown motor
Mass
730 kg wet, ~700 kg dry
Launch date (UTC)
2024-08-04 (11 months ago)
Launch vehicle
FALCON 9
Launch site
Air Force Western Test Range (AFWTR)
Object type
Payload
Rocket body
Debris
Shape & HBR
Box + 2 Pan, 29 m
Radar Cross Section
33.884 m², Large (>1 m²)

Expand to show TLE details & history

TLE from 11 hours ago
0 STARLINK-32287
1 60358U 24138D   25181.90357784 -.00000267  00000-0  31112-5 0  9999
2 60358  53.1602  39.4425 0001090  96.7182 263.3943 15.30193273 52079
Epoch: 2025-06-30T21:41Z
TLE epoch observation values (Epoch: 2025-06-30T21:41:09.125Z)
Latitude
-0°
Longitude
154.94777°
Altitude
476.221 km
Speed
7.629 km/s
True Right ascension
02h 37m 46s
True Declination
0° 00' 00"
Sunlit
Object was in daylight at epoch
Visualization orbit readout
Latitude
-44.82386°
Longitude
105.10311°
Altitude
491.091 km
Speed
7.619 km/s
Apparent Right ascension
03h 40m 57s
Apparent Declination
-65° 23' 49"
Sunlit
Object is in full shadow
Visualization observer readout
Local Sidereal Time
20:01:34
Azimuth
147.15° SSE
Elevation
-45.855°
Doppler factor
1
Orbital elements
Apogee altitude
476.239 km
Perigee altitude
474.745 km
Semi-major axis
6,853.629 km
Eccentricity
0.00011
Inclination
53.1602°
RAAN
39.4425°
Arg. of periapsis
96.7182°
True anomaly
Unknown
Mean anomaly
263.3943°
Eccentric anomaly
Unknown
Mean motion
3.82527 °/min
Orbital period
94.11 mins
BSTAR
0.0000031112
Loading maneuver chart data...
Loading SW <> Apogee altitude chart data...
Loading historical data...
Loading historical data...
Loading historical data...
Loading historical data...
Loading historical data...
Loading historical data...
Loading historical data...

STARLINK-32287 Visibility forecast

Observer location: undefined°, undefined°

Span
Click to sort rows by Start time (UTC) header in descending order
Start Az.
Max El. time (UTC)
Max El. Az.
Max El.
End time (UTC)
End Az.
6 mins2025-07-01 16:39:27.540Z200.414° SSW2025-07-01 16:42:27.540Z129.207° SE32.46°2025-07-01 16:45:27.540Z65.691° ENE
5 mins2025-07-01 18:18:27.540Z284.383° WNW2025-07-01 18:20:27.540Z334.504° NNW25.224°2025-07-01 18:23:27.540Z31.335° NE
5 mins2025-07-01 23:15:27.540Z339.095° N2025-07-01 23:17:27.540Z40.873° NE30.871°2025-07-01 23:20:27.540Z100.49° ESE
4 mins2025-07-02 00:53:27.540Z269.059° W2025-07-02 00:55:27.540Z217.245° SW23.718°2025-07-02 00:57:27.540Z177.539° S
|